Year,Month,Day,Hour,Minute,Value (Times are PST for insolation in W/m^2)
2018,08,11,00,00,0.00
2018,08,11,00,01,0.00
2018,08,11,00,02,0.00
2018,08,11,00,03,0.00
2018,08,11,00,04,0.00
2018,08,11,00,05,0.00
2018,08,11,00,06,0.00
2018,08,11,00,07,0.00
2018,08,11,00,08,0.00
2018,08,11,00,09,0.00
2018,08,11,00,10,0.00
2018,08,11,00,11,0.00
2018,08,11,00,12,0.00
2018,08,11,00,13,0.00
2018,08,11,00,14,0.00
2018,08,11,00,15,0.00
2018,08,11,00,16,0.00
2018,08,11,00,17,0.00
2018,08,11,00,18,0.00
2018,08,11,00,19,0.00
2018,08,11,00,20,0.00
2018,08,11,00,21,0.00
2018,08,11,00,22,0.00
2018,08,11,00,23,0.00
2018,08,11,00,24,0.00
2018,08,11,00,25,0.00
2018,08,11,00,26,0.00
2018,08,11,00,27,0.00
2018,08,11,00,28,0.00
2018,08,11,00,29,0.00
2018,08,11,00,30,0.00
2018,08,11,00,31,0.00
2018,08,11,00,32,0.00
2018,08,11,00,33,0.00
2018,08,11,00,34,0.00
2018,08,11,00,35,0.00
2018,08,11,00,36,0.00
2018,08,11,00,37,0.00
2018,08,11,00,38,0.00
2018,08,11,00,39,0.00
2018,08,11,00,40,0.00
2018,08,11,00,41,0.00
2018,08,11,00,42,0.00
2018,08,11,00,43,0.00
2018,08,11,00,44,0.00
2018,08,11,00,45,0.00
2018,08,11,00,46,0.00
2018,08,11,00,47,0.00
2018,08,11,00,48,0.00
2018,08,11,00,49,0.00
2018,08,11,00,50,0.00
2018,08,11,00,51,0.00
2018,08,11,00,52,0.00
2018,08,11,00,53,0.00
2018,08,11,00,54,0.00
2018,08,11,00,55,0.00
2018,08,11,00,56,0.00
2018,08,11,00,57,0.00
2018,08,11,00,58,0.00
2018,08,11,00,59,0.00
2018,08,11,01,00,0.00
2018,08,11,01,01,0.00
2018,08,11,01,02,0.00
2018,08,11,01,03,0.00
2018,08,11,01,04,0.00
2018,08,11,01,05,0.00
2018,08,11,01,06,0.00
2018,08,11,01,07,0.00
2018,08,11,01,08,0.00
2018,08,11,01,09,0.00
2018,08,11,01,10,0.00
2018,08,11,01,11,0.00
2018,08,11,01,12,0.00
2018,08,11,01,13,0.00
2018,08,11,01,14,0.00
2018,08,11,01,15,0.00
2018,08,11,01,16,0.00
2018,08,11,01,17,0.00
2018,08,11,01,18,0.00
2018,08,11,01,19,0.00
2018,08,11,01,20,0.00
2018,08,11,01,21,0.00
2018,08,11,01,22,0.00
2018,08,11,01,23,0.00
2018,08,11,01,24,0.00
2018,08,11,01,25,0.00
2018,08,11,01,26,0.00
2018,08,11,01,27,0.00
2018,08,11,01,28,0.00
2018,08,11,01,29,0.00
2018,08,11,01,30,0.00
2018,08,11,01,31,0.00
2018,08,11,01,32,0.00
2018,08,11,01,33,0.00
2018,08,11,01,34,0.00
2018,08,11,01,35,0.00
2018,08,11,01,36,0.00
2018,08,11,01,37,0.00
2018,08,11,01,38,0.00
2018,08,11,01,39,0.00
2018,08,11,01,40,0.00
2018,08,11,01,41,0.00
2018,08,11,01,42,0.00
2018,08,11,01,43,0.00
2018,08,11,01,44,0.00
2018,08,11,01,45,0.00
2018,08,11,01,46,0.00
2018,08,11,01,47,0.00
2018,08,11,01,48,0.00
2018,08,11,01,49,0.00
2018,08,11,01,50,0.00
2018,08,11,01,51,0.00
2018,08,11,01,52,0.00
2018,08,11,01,53,0.00
2018,08,11,01,54,0.00
2018,08,11,01,55,0.00
2018,08,11,01,56,0.00
2018,08,11,01,57,0.00
2018,08,11,01,58,0.00
2018,08,11,01,59,0.00
2018,08,11,02,00,0.00
2018,08,11,02,01,0.00
2018,08,11,02,02,0.00
2018,08,11,02,03,0.00
2018,08,11,02,04,0.00
2018,08,11,02,05,0.00
2018,08,11,02,06,0.00
2018,08,11,02,07,0.00
2018,08,11,02,08,0.00
2018,08,11,02,09,0.00
2018,08,11,02,10,0.00
2018,08,11,02,11,0.00
2018,08,11,02,12,0.00
2018,08,11,02,13,0.00
2018,08,11,02,14,0.00
2018,08,11,02,15,0.00
2018,08,11,02,16,0.00
2018,08,11,02,17,0.00
2018,08,11,02,18,0.00
2018,08,11,02,19,0.00
2018,08,11,02,20,0.00
2018,08,11,02,21,0.00
2018,08,11,02,22,0.00
2018,08,11,02,23,0.00
2018,08,11,02,24,0.00
2018,08,11,02,25,0.00
2018,08,11,02,26,0.00
2018,08,11,02,27,0.00
2018,08,11,02,28,0.00
2018,08,11,02,29,0.00
2018,08,11,02,30,0.00
2018,08,11,02,31,0.00
2018,08,11,02,32,0.00
2018,08,11,02,33,0.00
2018,08,11,02,34,0.00
2018,08,11,02,35,0.00
2018,08,11,02,36,0.00
2018,08,11,02,37,0.00
2018,08,11,02,38,0.00
2018,08,11,02,39,0.00
2018,08,11,02,40,0.00
2018,08,11,02,41,0.00
2018,08,11,02,42,0.00
2018,08,11,02,43,0.00
2018,08,11,02,44,0.00
2018,08,11,02,45,0.00
2018,08,11,02,46,0.00
2018,08,11,02,47,0.00
2018,08,11,02,48,0.00
2018,08,11,02,49,0.00
2018,08,11,02,50,0.00
2018,08,11,02,51,0.00
2018,08,11,02,52,0.00
2018,08,11,02,53,0.00
2018,08,11,02,54,0.00
2018,08,11,02,55,0.00
2018,08,11,02,56,0.00
2018,08,11,02,57,0.00
2018,08,11,02,58,0.00
2018,08,11,02,59,0.00
2018,08,11,03,00,0.00
2018,08,11,03,01,0.00
2018,08,11,03,02,0.00
2018,08,11,03,03,0.00
2018,08,11,03,04,0.00
2018,08,11,03,05,0.00
2018,08,11,03,06,0.00
2018,08,11,03,07,0.00
2018,08,11,03,08,0.00
2018,08,11,03,09,0.00
2018,08,11,03,10,0.00
2018,08,11,03,11,0.00
2018,08,11,03,12,0.00
2018,08,11,03,13,0.00
2018,08,11,03,14,0.00
2018,08,11,03,15,0.00
2018,08,11,03,16,0.00
2018,08,11,03,17,0.00
2018,08,11,03,18,0.00
2018,08,11,03,19,0.00
2018,08,11,03,20,0.00
2018,08,11,03,21,0.00
2018,08,11,03,22,0.00
2018,08,11,03,23,0.00
2018,08,11,03,24,0.00
2018,08,11,03,25,0.00
2018,08,11,03,26,0.00
2018,08,11,03,27,0.00
2018,08,11,03,28,0.00
2018,08,11,03,29,0.00
2018,08,11,03,30,0.00
2018,08,11,03,31,0.00
2018,08,11,03,32,0.00
2018,08,11,03,33,0.00
2018,08,11,03,34,0.00
2018,08,11,03,35,0.00
2018,08,11,03,36,0.00
2018,08,11,03,37,0.00
2018,08,11,03,38,0.00
2018,08,11,03,39,0.00
2018,08,11,03,40,0.00
2018,08,11,03,41,0.00
2018,08,11,03,42,0.00
2018,08,11,03,43,0.00
2018,08,11,03,44,0.00
2018,08,11,03,45,0.00
2018,08,11,03,46,0.00
2018,08,11,03,47,0.00
2018,08,11,03,48,0.00
2018,08,11,03,49,0.00
2018,08,11,03,50,0.00
2018,08,11,03,51,0.00
2018,08,11,03,52,0.00
2018,08,11,03,53,0.00
2018,08,11,03,54,0.00
2018,08,11,03,55,0.00
2018,08,11,03,56,0.00
2018,08,11,03,57,0.00
2018,08,11,03,58,0.00
2018,08,11,03,59,0.00
2018,08,11,04,00,0.00
2018,08,11,04,01,0.00
2018,08,11,04,02,0.00
2018,08,11,04,03,0.00
2018,08,11,04,04,0.00
2018,08,11,04,05,0.00
2018,08,11,04,06,0.00
2018,08,11,04,07,0.00
2018,08,11,04,08,0.00
2018,08,11,04,09,0.00
2018,08,11,04,10,0.00
2018,08,11,04,11,0.00
2018,08,11,04,12,0.00
2018,08,11,04,13,0.00
2018,08,11,04,14,0.00
2018,08,11,04,15,0.00
2018,08,11,04,16,0.00
2018,08,11,04,17,0.00
2018,08,11,04,18,0.00
2018,08,11,04,19,0.00
2018,08,11,04,20,0.00
2018,08,11,04,21,0.00
2018,08,11,04,22,0.00
2018,08,11,04,23,0.00
2018,08,11,04,24,0.00
2018,08,11,04,25,0.00
2018,08,11,04,26,0.00
2018,08,11,04,27,0.00
2018,08,11,04,28,0.00
2018,08,11,04,29,0.00
2018,08,11,04,30,0.00
2018,08,11,04,31,0.00
2018,08,11,04,32,0.00
2018,08,11,04,33,0.00
2018,08,11,04,34,0.00
2018,08,11,04,35,0.00
2018,08,11,04,36,0.00
2018,08,11,04,37,0.00
2018,08,11,04,38,0.00
2018,08,11,04,39,0.00
2018,08,11,04,40,0.00
2018,08,11,04,41,0.00
2018,08,11,04,42,0.00
2018,08,11,04,43,0.00
2018,08,11,04,44,0.00
2018,08,11,04,45,0.00
2018,08,11,04,46,0.00
2018,08,11,04,47,0.00
2018,08,11,04,48,0.00
2018,08,11,04,49,0.00
2018,08,11,04,50,0.00
2018,08,11,04,51,0.00
2018,08,11,04,52,0.00
2018,08,11,04,53,0.00
2018,08,11,04,54,0.00
2018,08,11,04,55,0.00
2018,08,11,04,56,0.00
2018,08,11,04,57,0.00
2018,08,11,04,58,0.00
2018,08,11,04,59,0.00
2018,08,11,05,00,0.00
2018,08,11,05,01,0.00
2018,08,11,05,02,0.00
2018,08,11,05,03,0.00
2018,08,11,05,04,0.00
2018,08,11,05,05,0.00
2018,08,11,05,06,0.00
2018,08,11,05,07,0.00
2018,08,11,05,08,0.00
2018,08,11,05,09,0.00
2018,08,11,05,10,0.00
2018,08,11,05,11,0.00
2018,08,11,05,12,0.00
2018,08,11,05,13,0.00
2018,08,11,05,14,0.00
2018,08,11,05,15,0.00
2018,08,11,05,16,0.00
2018,08,11,05,17,0.00
2018,08,11,05,18,0.00
2018,08,11,05,19,0.00
2018,08,11,05,20,0.00
2018,08,11,05,21,0.00
2018,08,11,05,22,0.00
2018,08,11,05,23,0.00
2018,08,11,05,24,0.00
2018,08,11,05,25,0.00
2018,08,11,05,26,0.00
2018,08,11,05,27,0.00
2018,08,11,05,28,0.00
2018,08,11,05,29,0.00
2018,08,11,05,30,0.00
2018,08,11,05,31,0.00
2018,08,11,05,32,0.00
2018,08,11,05,33,0.00
2018,08,11,05,34,0.00
2018,08,11,05,35,0.00
2018,08,11,05,36,0.00
2018,08,11,05,37,0.00
2018,08,11,05,38,0.00
2018,08,11,05,39,0.00
2018,08,11,05,40,0.00
2018,08,11,05,41,0.00
2018,08,11,05,42,0.00
2018,08,11,05,43,0.00
2018,08,11,05,44,0.00
2018,08,11,05,45,0.00
2018,08,11,05,46,0.00
2018,08,11,05,47,0.00
2018,08,11,05,48,0.00
2018,08,11,05,49,0.00
2018,08,11,05,50,0.00
2018,08,11,05,51,0.00
2018,08,11,05,52,0.00
2018,08,11,05,53,0.00
2018,08,11,05,54,0.00
2018,08,11,05,55,0.00
2018,08,11,05,56,0.00
2018,08,11,05,57,0.00
2018,08,11,05,58,0.00
2018,08,11,05,59,0.00
2018,08,11,06,00,0.00
2018,08,11,06,01,0.00
2018,08,11,06,02,0.00
2018,08,11,06,03,0.00
2018,08,11,06,04,0.00
2018,08,11,06,05,0.00
2018,08,11,06,06,0.00
2018,08,11,06,07,0.00
2018,08,11,06,08,2.60
2018,08,11,06,09,5.00
2018,08,11,06,10,5.00
2018,08,11,06,11,5.00
2018,08,11,06,12,5.00
2018,08,11,06,13,5.60
2018,08,11,06,14,7.00
2018,08,11,06,15,7.00
2018,08,11,06,16,7.00
2018,08,11,06,17,7.00
2018,08,11,06,18,7.00
2018,08,11,06,19,7.20
2018,08,11,06,20,9.00
2018,08,11,06,21,9.00
2018,08,11,06,22,9.00
2018,08,11,06,23,9.00
2018,08,11,06,24,9.00
2018,08,11,06,25,9.00
2018,08,11,06,26,11.00
2018,08,11,06,27,11.00
2018,08,11,06,28,11.00
2018,08,11,06,29,11.00
2018,08,11,06,30,11.00
2018,08,11,06,31,11.00
2018,08,11,06,32,11.00
2018,08,11,06,33,11.10
2018,08,11,06,34,12.00
2018,08,11,06,35,12.00
2018,08,11,06,36,12.00
2018,08,11,06,37,12.00
2018,08,11,06,38,12.00
2018,08,11,06,39,12.00
2018,08,11,06,40,12.00
2018,08,11,06,41,12.00
2018,08,11,06,42,12.80
2018,08,11,06,43,14.00
2018,08,11,06,44,14.00
2018,08,11,06,45,14.00
2018,08,11,06,46,14.00
2018,08,11,06,47,14.00
2018,08,11,06,48,14.00
2018,08,11,06,49,14.00
2018,08,11,06,50,14.00
2018,08,11,06,51,15.20
2018,08,11,06,52,16.00
2018,08,11,06,53,16.00
2018,08,11,06,54,16.00
2018,08,11,06,55,16.00
2018,08,11,06,56,16.00
2018,08,11,06,57,16.00
2018,08,11,06,58,16.00
2018,08,11,06,59,17.50
2018,08,11,07,00,18.90
2018,08,11,07,01,19.30
2018,08,11,07,02,21.50
2018,08,11,07,03,23.70
2018,08,11,07,04,26.40
2018,08,11,07,05,24.90
2018,08,11,07,06,23.00
2018,08,11,07,07,23.00
2018,08,11,07,08,21.00
2018,08,11,07,09,21.50
2018,08,11,07,10,23.00
2018,08,11,07,11,25.50
2018,08,11,07,12,28.00
2018,08,11,07,13,25.70
2018,08,11,07,14,25.00
2018,08,11,07,15,25.00
2018,08,11,07,16,25.70
2018,08,11,07,17,29.50
2018,08,11,07,18,31.00
2018,08,11,07,19,27.60
2018,08,11,07,20,26.00
2018,08,11,07,21,25.10
2018,08,11,07,22,26.00
2018,08,11,07,23,26.50
2018,08,11,07,24,28.80
2018,08,11,07,25,30.00
2018,08,11,07,26,31.20
2018,08,11,07,27,32.00
2018,08,11,07,28,32.90
2018,08,11,07,29,35.00
2018,08,11,07,30,35.50
2018,08,11,07,31,38.10
2018,08,11,07,32,43.10
2018,08,11,07,33,55.90
2018,08,11,07,34,67.20
2018,08,11,07,35,65.60
2018,08,11,07,36,64.20
2018,08,11,07,37,74.80
2018,08,11,07,38,83.30
2018,08,11,07,39,83.50
2018,08,11,07,40,81.80
2018,08,11,07,41,83.30
2018,08,11,07,42,87.60
2018,08,11,07,43,80.70
2018,08,11,07,44,77.50
2018,08,11,07,45,79.80
2018,08,11,07,46,82.00
2018,08,11,07,47,83.00
2018,08,11,07,48,86.60
2018,08,11,07,49,107.80
2018,08,11,07,50,129.80
2018,08,11,07,51,184.80
2018,08,11,07,52,238.90
2018,08,11,07,53,269.00
2018,08,11,07,54,269.00
2018,08,11,07,55,158.20
2018,08,11,07,56,105.70
2018,08,11,07,57,104.70
2018,08,11,07,58,112.90
2018,08,11,07,59,158.00
2018,08,11,08,00,245.60
2018,08,11,08,01,252.00
2018,08,11,08,02,262.20
2018,08,11,08,03,293.30
2018,08,11,08,04,376.70
2018,08,11,08,05,378.50
2018,08,11,08,06,353.80
2018,08,11,08,07,373.80
2018,08,11,08,08,303.30
2018,08,11,08,09,261.10
2018,08,11,08,10,299.70
2018,08,11,08,11,258.10
2018,08,11,08,12,213.80
2018,08,11,08,13,192.00
2018,08,11,08,14,191.00
2018,08,11,08,15,191.20
2018,08,11,08,16,207.20
2018,08,11,08,17,237.10
2018,08,11,08,18,233.50
2018,08,11,08,19,239.00
2018,08,11,08,20,235.30
2018,08,11,08,21,242.80
2018,08,11,08,22,230.90
2018,08,11,08,23,211.60
2018,08,11,08,24,204.20
2018,08,11,08,25,210.10
2018,08,11,08,26,236.00
2018,08,11,08,27,236.00
2018,08,11,08,28,241.20
2018,08,11,08,29,215.80
2018,08,11,08,30,180.90
2018,08,11,08,31,214.50
2018,08,11,08,32,221.00
2018,08,11,08,33,267.30
2018,08,11,08,34,421.00
2018,08,11,08,35,440.20
2018,08,11,08,36,448.60
2018,08,11,08,37,447.00
2018,08,11,08,38,429.00
2018,08,11,08,39,444.00
2018,08,11,08,40,427.50
2018,08,11,08,41,402.80
2018,08,11,08,42,378.00
2018,08,11,08,43,419.60
2018,08,11,08,44,447.70
2018,08,11,08,45,452.00
2018,08,11,08,46,415.20
2018,08,11,08,47,185.00
2018,08,11,08,48,185.00
2018,08,11,08,49,172.90
2018,08,11,08,50,194.80
2018,08,11,08,51,216.00
2018,08,11,08,52,216.00
2018,08,11,08,53,210.90
2018,08,11,08,54,174.80
2018,08,11,08,55,159.30
2018,08,11,08,56,151.50
2018,08,11,08,57,168.50
2018,08,11,08,58,191.10
2018,08,11,08,59,175.20
2018,08,11,09,00,178.30
2018,08,11,09,01,218.80
2018,08,11,09,02,240.10
2018,08,11,09,03,300.00
2018,08,11,09,04,350.00
2018,08,11,09,05,485.80
2018,08,11,09,06,543.30
2018,08,11,09,07,616.70
2018,08,11,09,08,611.10
2018,08,11,09,09,562.20
2018,08,11,09,10,575.00
2018,08,11,09,11,645.60
2018,08,11,09,12,663.00
2018,08,11,09,13,394.90
2018,08,11,09,14,352.00
2018,08,11,09,15,360.00
2018,08,11,09,16,391.80
2018,08,11,09,17,435.60
2018,08,11,09,18,466.00
2018,08,11,09,19,439.40
2018,08,11,09,20,418.90
2018,08,11,09,21,389.00
2018,08,11,09,22,462.80
2018,08,11,09,23,459.00
2018,08,11,09,24,369.00
2018,08,11,09,25,308.80
2018,08,11,09,26,321.70
2018,08,11,09,27,291.40
2018,08,11,09,28,234.80
2018,08,11,09,29,221.00
2018,08,11,09,30,218.30
2018,08,11,09,31,215.00
2018,08,11,09,32,224.10
2018,08,11,09,33,220.70
2018,08,11,09,34,252.30
2018,08,11,09,35,246.80
2018,08,11,09,36,284.10
2018,08,11,09,37,275.60
2018,08,11,09,38,245.80
2018,08,11,09,39,210.60
2018,08,11,09,40,176.80
2018,08,11,09,41,156.70
2018,08,11,09,42,139.90
2018,08,11,09,43,123.60
2018,08,11,09,44,113.00
2018,08,11,09,45,104.30
2018,08,11,09,46,93.80
2018,08,11,09,47,93.00
2018,08,11,09,48,96.40
2018,08,11,09,49,113.20
2018,08,11,09,50,132.10
2018,08,11,09,51,158.00
2018,08,11,09,52,180.30
2018,08,11,09,53,211.10
2018,08,11,09,54,286.90
2018,08,11,09,55,335.50
2018,08,11,09,56,331.40
2018,08,11,09,57,299.80
2018,08,11,09,58,259.60
2018,08,11,09,59,242.40
2018,08,11,10,00,248.30
2018,08,11,10,01,266.00
2018,08,11,10,02,299.40
2018,08,11,10,03,300.80
2018,08,11,10,04,319.00
2018,08,11,10,05,334.50
2018,08,11,10,06,362.50
2018,08,11,10,07,371.20
2018,08,11,10,08,333.20
2018,08,11,10,09,390.10
2018,08,11,10,10,410.70
2018,08,11,10,11,504.90
2018,08,11,10,12,533.00
2018,08,11,10,13,475.00
2018,08,11,10,14,426.30
2018,08,11,10,15,460.20
2018,08,11,10,16,474.40
2018,08,11,10,17,461.20
2018,08,11,10,18,350.80
2018,08,11,10,19,357.80
2018,08,11,10,20,343.00
2018,08,11,10,21,369.10
2018,08,11,10,22,390.20
2018,08,11,10,23,334.20
2018,08,11,10,24,290.20
2018,08,11,10,25,280.10
2018,08,11,10,26,314.40
2018,08,11,10,27,363.30
2018,08,11,10,28,373.60
2018,08,11,10,29,385.00
2018,08,11,10,30,385.00
2018,08,11,10,31,833.00
2018,08,11,10,32,788.60
2018,08,11,10,33,628.30
2018,08,11,10,34,591.00
2018,08,11,10,35,591.00
2018,08,11,10,36,591.00
2018,08,11,10,37,591.00
2018,08,11,10,38,591.00
2018,08,11,10,39,591.00
2018,08,11,10,40,561.40
2018,08,11,10,41,513.00
2018,08,11,10,42,442.20
2018,08,11,10,43,399.00
2018,08,11,10,44,556.10
2018,08,11,10,45,575.00
2018,08,11,10,46,574.50
2018,08,11,10,47,573.00
2018,08,11,10,48,483.70
2018,08,11,10,49,412.20
2018,08,11,10,50,469.50
2018,08,11,10,51,457.20
2018,08,11,10,52,454.00
2018,08,11,10,53,454.00
2018,08,11,10,54,534.40
2018,08,11,10,55,715.50
2018,08,11,10,56,765.00
2018,08,11,10,57,765.00
2018,08,11,10,58,649.50
2018,08,11,10,59,638.40
2018,08,11,11,00,610.00
2018,08,11,11,01,610.00
2018,08,11,11,02,550.00
2018,08,11,11,03,494.00
2018,08,11,11,04,494.00
2018,08,11,11,05,542.30
2018,08,11,11,06,497.00
2018,08,11,11,07,497.00
2018,08,11,11,08,683.90
2018,08,11,11,09,1039.00
2018,08,11,11,10,1039.00
2018,08,11,11,11,706.70
2018,08,11,11,12,674.30
2018,08,11,11,13,656.50
2018,08,11,11,14,412.80
2018,08,11,11,15,418.00
2018,08,11,11,16,418.00
2018,08,11,11,17,418.00
2018,08,11,11,18,418.00
2018,08,11,11,19,418.00
2018,08,11,11,20,484.30
2018,08,11,11,21,525.10
2018,08,11,11,22,541.00
2018,08,11,11,23,541.00
2018,08,11,11,24,541.00
2018,08,11,11,25,478.80
2018,08,11,11,26,467.00
2018,08,11,11,27,539.40
2018,08,11,11,28,536.00
2018,08,11,11,29,536.00
2018,08,11,11,30,842.60
2018,08,11,11,31,1171.00
2018,08,11,11,32,1171.00
2018,08,11,11,33,1171.00
2018,08,11,11,34,1171.00
2018,08,11,11,35,1171.00
2018,08,11,11,36,1127.40
2018,08,11,11,37,1056.00
2018,08,11,11,38,684.40
2018,08,11,11,39,414.30
2018,08,11,11,40,357.80
2018,08,11,11,41,316.00
2018,08,11,11,42,294.70
2018,08,11,11,43,281.00
2018,08,11,11,44,281.00
2018,08,11,11,45,285.50
2018,08,11,11,46,298.10
2018,08,11,11,47,296.00
2018,08,11,11,48,357.40
2018,08,11,11,49,394.00
2018,08,11,11,50,394.00
2018,08,11,11,51,394.00
2018,08,11,11,52,439.90
2018,08,11,11,53,438.80
2018,08,11,11,54,423.00
2018,08,11,11,55,428.20
2018,08,11,11,56,480.00
2018,08,11,11,57,480.00
2018,08,11,11,58,480.00
2018,08,11,11,59,480.00
2018,08,11,12,00,480.00
2018,08,11,12,01,480.00
2018,08,11,12,02,470.50
2018,08,11,12,03,404.50
2018,08,11,12,04,393.70
2018,08,11,12,05,427.10
2018,08,11,12,06,439.40
2018,08,11,12,07,493.80
2018,08,11,12,08,513.00
2018,08,11,12,09,522.90
2018,08,11,12,10,605.00
2018,08,11,12,11,569.00
2018,08,11,12,12,530.00
2018,08,11,12,13,509.70
2018,08,11,12,14,482.80
2018,08,11,12,15,494.10
2018,08,11,12,16,511.40
2018,08,11,12,17,601.50
2018,08,11,12,18,604.80
2018,08,11,12,19,609.90
2018,08,11,12,20,590.30
2018,08,11,12,21,596.00
2018,08,11,12,22,596.00
2018,08,11,12,23,584.00
2018,08,11,12,24,622.40
2018,08,11,12,25,596.10
2018,08,11,12,26,558.80
2018,08,11,12,27,496.90
2018,08,11,12,28,473.00
2018,08,11,12,29,323.90
2018,08,11,12,30,254.60
2018,08,11,12,31,212.00
2018,08,11,12,32,172.90
2018,08,11,12,33,140.50
2018,08,11,12,34,117.40
2018,08,11,12,35,100.40
2018,08,11,12,36,85.40
2018,08,11,12,37,75.60
2018,08,11,12,38,71.50
2018,08,11,12,39,70.70
2018,08,11,12,40,74.10
2018,08,11,12,41,76.60
2018,08,11,12,42,77.00
2018,08,11,12,43,77.00
2018,08,11,12,44,77.40
2018,08,11,12,45,82.20
2018,08,11,12,46,87.80
2018,08,11,12,47,95.30
2018,08,11,12,48,104.20
2018,08,11,12,49,115.00
2018,08,11,12,50,126.60
2018,08,11,12,51,130.70
2018,08,11,12,52,155.90
2018,08,11,12,53,168.40
2018,08,11,12,54,178.50
2018,08,11,12,55,186.10
2018,08,11,12,56,189.50
2018,08,11,12,57,191.70
2018,08,11,12,58,189.70
2018,08,11,12,59,186.60
2018,08,11,13,00,181.10
2018,08,11,13,01,177.00
2018,08,11,13,02,173.50
2018,08,11,13,03,169.80
2018,08,11,13,04,165.60
2018,08,11,13,05,162.90
2018,08,11,13,06,161.50
2018,08,11,13,07,159.20
2018,08,11,13,08,156.60
2018,08,11,13,09,153.80
2018,08,11,13,10,151.50
2018,08,11,13,11,149.30
2018,08,11,13,12,143.60
2018,08,11,13,13,140.40
2018,08,11,13,14,138.20
2018,08,11,13,15,135.50
2018,08,11,13,16,131.50
2018,08,11,13,17,127.70
2018,08,11,13,18,125.20
2018,08,11,13,19,122.70
2018,08,11,13,20,120.80
2018,08,11,13,21,120.00
2018,08,11,13,22,120.00
2018,08,11,13,23,120.00
2018,08,11,13,24,120.00
2018,08,11,13,25,120.00
2018,08,11,13,26,121.20
2018,08,11,13,27,123.50
2018,08,11,13,28,126.10
2018,08,11,13,29,130.00
2018,08,11,13,30,135.10
2018,08,11,13,31,140.80
2018,08,11,13,32,147.40
2018,08,11,13,33,153.80
2018,08,11,13,34,160.70
2018,08,11,13,35,165.30
2018,08,11,13,36,170.50
2018,08,11,13,37,176.30
2018,08,11,13,38,183.60
2018,08,11,13,39,191.30
2018,08,11,13,40,199.80
2018,08,11,13,41,207.90
2018,08,11,13,42,214.90
2018,08,11,13,43,219.50
2018,08,11,13,44,222.20
2018,08,11,13,45,224.50
2018,08,11,13,46,221.40
2018,08,11,13,47,221.40
2018,08,11,13,48,225.00
2018,08,11,13,49,225.00
2018,08,11,13,50,224.00
2018,08,11,13,51,221.80
2018,08,11,13,52,220.20
2018,08,11,13,53,218.20
2018,08,11,13,54,214.00
2018,08,11,13,55,213.80
2018,08,11,13,56,212.20
2018,08,11,13,57,211.00
2018,08,11,13,58,211.00
2018,08,11,13,59,212.50
2018,08,11,14,00,213.90
2018,08,11,14,01,216.30
2018,08,11,14,02,218.80
2018,08,11,14,03,222.50
2018,08,11,14,04,227.50
2018,08,11,14,05,232.50
2018,08,11,14,06,237.80
2018,08,11,14,07,243.50
2018,08,11,14,08,250.70
2018,08,11,14,09,256.40
2018,08,11,14,10,261.80
2018,08,11,14,11,266.90
2018,08,11,14,12,272.10
2018,08,11,14,13,277.80
2018,08,11,14,14,284.20
2018,08,11,14,15,290.70
2018,08,11,14,16,296.70
2018,08,11,14,17,304.70
2018,08,11,14,18,312.10
2018,08,11,14,19,318.20
2018,08,11,14,20,322.30
2018,08,11,14,21,328.20
2018,08,11,14,22,336.20
2018,08,11,14,23,338.20
2018,08,11,14,24,339.80
2018,08,11,14,25,341.00
2018,08,11,14,26,341.00
2018,08,11,14,27,341.00
2018,08,11,14,28,344.40
2018,08,11,14,29,340.70
2018,08,11,14,30,339.60
2018,08,11,14,31,340.20
2018,08,11,14,32,336.60
2018,08,11,14,33,334.00
2018,08,11,14,34,334.00
2018,08,11,14,35,335.80
2018,08,11,14,36,334.00
2018,08,11,14,37,333.50
2018,08,11,14,38,333.50
2018,08,11,14,39,339.60
2018,08,11,14,40,343.00
2018,08,11,14,41,358.20
2018,08,11,14,42,353.70
2018,08,11,14,43,356.00
2018,08,11,14,44,361.20
2018,08,11,14,45,358.20
2018,08,11,14,46,358.00
2018,08,11,14,47,357.70
2018,08,11,14,48,355.50
2018,08,11,14,49,356.70
2018,08,11,14,50,363.20
2018,08,11,14,51,372.20
2018,08,11,14,52,381.30
2018,08,11,14,53,400.10
2018,08,11,14,54,432.90
2018,08,11,14,55,445.00
2018,08,11,14,56,563.10
2018,08,11,14,57,622.00
2018,08,11,14,58,876.20
2018,08,11,14,59,885.20
2018,08,11,15,00,879.00
2018,08,11,15,01,879.00
2018,08,11,15,02,785.70
2018,08,11,15,03,695.90
2018,08,11,15,04,646.60
2018,08,11,15,05,383.60
2018,08,11,15,06,364.20
2018,08,11,15,07,373.50
2018,08,11,15,08,381.60
2018,08,11,15,09,367.00
2018,08,11,15,10,360.00
2018,08,11,15,11,375.70
2018,08,11,15,12,428.50
2018,08,11,15,13,390.10
2018,08,11,15,14,334.00
2018,08,11,15,15,292.50
2018,08,11,15,16,267.60
2018,08,11,15,17,255.80
2018,08,11,15,18,257.40
2018,08,11,15,19,263.30
2018,08,11,15,20,274.10
2018,08,11,15,21,276.10
2018,08,11,15,22,270.90
2018,08,11,15,23,265.20
2018,08,11,15,24,257.40
2018,08,11,15,25,247.00
2018,08,11,15,26,238.30
2018,08,11,15,27,235.20
2018,08,11,15,28,234.00
2018,08,11,15,29,235.90
2018,08,11,15,30,242.10
2018,08,11,15,31,255.20
2018,08,11,15,32,273.60
2018,08,11,15,33,296.90
2018,08,11,15,34,320.50
2018,08,11,15,35,337.80
2018,08,11,15,36,351.60
2018,08,11,15,37,343.00
2018,08,11,15,38,339.00
2018,08,11,15,39,343.50
2018,08,11,15,40,333.00
2018,08,11,15,41,327.00
2018,08,11,15,42,330.80
2018,08,11,15,43,345.80
2018,08,11,15,44,353.80
2018,08,11,15,45,346.40
2018,08,11,15,46,337.80
2018,08,11,15,47,328.20
2018,08,11,15,48,327.90
2018,08,11,15,49,336.00
2018,08,11,15,50,336.00
2018,08,11,15,51,367.50
2018,08,11,15,52,399.60
2018,08,11,15,53,470.30
2018,08,11,15,54,483.00
2018,08,11,15,55,441.00
2018,08,11,15,56,441.00
2018,08,11,15,57,500.00
2018,08,11,15,58,489.00
2018,08,11,15,59,515.50
2018,08,11,16,00,503.80
2018,08,11,16,01,393.20
2018,08,11,16,02,403.00
2018,08,11,16,03,315.60
2018,08,11,16,04,222.20
2018,08,11,16,05,208.50
2018,08,11,16,06,202.60
2018,08,11,16,07,187.20
2018,08,11,16,08,180.30
2018,08,11,16,09,175.30
2018,08,11,16,10,166.90
2018,08,11,16,11,156.80
2018,08,11,16,12,147.80
2018,08,11,16,13,140.00
2018,08,11,16,14,134.90
2018,08,11,16,15,133.40
2018,08,11,16,16,133.10
2018,08,11,16,17,137.90
2018,08,11,16,18,145.30
2018,08,11,16,19,151.80
2018,08,11,16,20,154.80
2018,08,11,16,21,153.20
2018,08,11,16,22,155.20
2018,08,11,16,23,156.00
2018,08,11,16,24,156.00
2018,08,11,16,25,154.10
2018,08,11,16,26,150.00
2018,08,11,16,27,148.10
2018,08,11,16,28,148.10
2018,08,11,16,29,149.50
2018,08,11,16,30,152.50
2018,08,11,16,31,156.60
2018,08,11,16,32,162.50
2018,08,11,16,33,169.60
2018,08,11,16,34,175.30
2018,08,11,16,35,183.70
2018,08,11,16,36,187.50
2018,08,11,16,37,183.30
2018,08,11,16,38,174.90
2018,08,11,16,39,165.20
2018,08,11,16,40,160.60
2018,08,11,16,41,158.30
2018,08,11,16,42,155.60
2018,08,11,16,43,151.80
2018,08,11,16,44,145.30
2018,08,11,16,45,135.30
2018,08,11,16,46,124.40
2018,08,11,16,47,117.20
2018,08,11,16,48,113.40
2018,08,11,16,49,110.70
2018,08,11,16,50,109.60
2018,08,11,16,51,112.20
2018,08,11,16,52,117.10
2018,08,11,16,53,124.60
2018,08,11,16,54,136.00
2018,08,11,16,55,147.60
2018,08,11,16,56,158.60
2018,08,11,16,57,162.00
2018,08,11,16,58,162.00
2018,08,11,16,59,162.50
2018,08,11,17,00,163.00
2018,08,11,17,01,163.00
2018,08,11,17,02,163.00
2018,08,11,17,03,167.40
2018,08,11,17,04,171.20
2018,08,11,17,05,172.80
2018,08,11,17,06,175.00
2018,08,11,17,07,177.20
2018,08,11,17,08,178.80
2018,08,11,17,09,182.40
2018,08,11,17,10,190.40
2018,08,11,17,11,196.00